Preview of NWS' New Version of Forecast
This preview is not operational and should not be used for support decisions.
Latest weather observations around

Whitefield - Mount Washington Regional Airport (KHIE)

Using English Units (Switch to International System of Units)
Date/ Time (EDT) Wind (mph) Vis. (mi) Weather Sky Cond. Temp (°F) Rel. Humidity Wind Chill (°F) Heat Index (°F) Pressure Precip. (in)
Air Dwpt 6 hour Altimeter (inHg) Sea level (inHg) 1 hr 3 hr 6 hr
Max Min
Mar 26 07:52 Calm 10 Clear CLR 8 1     72%     30.21 30.27      
Mar 26 06:52 Calm 9 Clear CLR 4 -3     73%     30.18 30.24      
Mar 26 05:52 Calm 10 Clear CLR 4 -3     73%     30.15 30.22      
Mar 26 04:52 Calm 10 Clear CLR 5 0     79%     30.13 30.19      
Mar 26 03:52 Calm 10 Clear CLR 5 -2     72%     30.11 30.17      
Mar 26 02:52 Calm 10 Clear CLR 8 1     72%     30.11 30.16      
Mar 26 01:52 Calm 10 Clear CLR 10 3     73%     30.09 30.15      
Mar 26 00:52 Calm 10 Clear CLR 11 2     66%     30.08 30.14      
Mar 25 23:52 Calm 10 Clear CLR 14 3     61%     30.07 30.13      
Mar 25 22:52 S 3 10 Clear CLR 16 4     58% 11   30.07 30.12      
Mar 25 21:52 WSW 3 10 Clear CLR 22 2     41% 17   30.07 30.12      
Mar 25 20:52 NW 7 10 Clear CLR 26 -2     29% 18   30.04 30.09      
Mar 25 19:52 WNW 3 10 Clear CLR 28 -2     27% 24   30.02 30.07      
Mar 25 18:52 W 10 10 Clear CLR 32 -5     20% 24   30 30.05      
Mar 25 17:52 W 13 10 Clear CLR 33 -4     20% 24   30 30.04      
Mar 25 16:52 W 7 10 Clear CLR 33 -2     22% 27   29.99 30.04      
Mar 25 15:52   10 Clear CLR 32 -5     20%     30.01 30.06      
Mar 25 14:52 W 9 10 Clear CLR 32 -2     23% 24   30.03 30.07      
Mar 25 13:52 W 16 10 Clear CLR 31 -2     24% 20   30.05 30.09      
Mar 25 12:52 W 11 10 Clear CLR 30 -1     26% 21   30.04 30.09      
Mar 25 11:52 WNW 10 10 Clear CLR 30 1     28% 21   30.04 30.08      
Mar 25 10:52 W 14 10 Clear CLR 29 4     34% 18   30.04 30.09      
Mar 25 09:52 WSW 10 10 Clear CLR 27 5     39% 17   30.06 30.1      
Mar 25 08:52 W 7 10 Clear CLR 25 7     46% 17   30.06 30.1      
Mar 25 07:52 W 6 10 Clear   23 7     50% 16   30.04 30.08      
Mar 25 06:52 W 5 10 Clear CLR 22 4     45% 16   30.03 30.07      
Mar 25 05:52 NW 8 10 Clear CLR 24 12     60% 15   30.01 30.04      
Mar 25 04:52 NW 10 10 Clear CLR 26 14     60% 16   29.99 30.03   0  
Mar 25 03:52 NW 11 10 Cloudy FEW027 BKN065 OVC080 29 18     63% 19   29.97 30      
Mar 25 02:52 WNW 5 10 Cloudy SCT033 SCT041 OVC055 31 24     75% 26   29.96 29.98 0    
Mar 25 02:29 W 7 7 Light Snow SCT011 BKN033 OVC041 32 26     78% 26   29.95   0    
Mar 25 02:23 WNW 10 5 Light Snow and Fog/Mist BKN011 BKN019 OVC041 32 28     85% 24   29.95   0    
Mar 25 02:11 WNW 6 2 Light Snow and Fog/Mist SCT009 BKN014 OVC018 32 29     88% 26   29.95   0    
Mar 25 02:08 5 1.75 Light Snow and Fog/Mist BKN012 OVC016 32 29     88% 27   29.95   0    
Mar 25 02:01 Calm 1 Light Snow and Fog/Mist BKN012 OVC019 32 30     92%     29.95   0    
Mar 25 01:52 Calm 1 Light Snow and Fog/Mist BKN015 OVC019 32 29     88%     29.94 29.97 0   0
Mar 25 01:22 W 6 1.5 Light Snow FEW015 BKN019 OVC038 33 28     82% 28   29.94   0    
Mar 25 01:15 WSW 5 2 Light Snow FEW015 BKN019 OVC036 33 28     82% 29   29.93   0    
Mar 25 00:52 SW 5 4 Light Snow FEW017 OVC034 33 28     82% 29   29.93 29.96 0    
Mar 24 23:52 NNW 10 5 Light Snow BKN034 OVC041 35 27     72% 27   29.92 29.95 0    
Mar 24 22:52 Calm 10 Cloudy BKN055 OVC075 33 28     82%     29.9 29.94      
Mar 24 21:52 Calm 10 Mostly Cloudy FEW060 BKN080 36 26     67%     29.91 29.94      
Mar 24 20:52 Calm 10 Cloudy OVC060 38 26     62%     29.9 29.94      
Mar 24 19:52 WNW 6 10 Mostly Clear FEW065 40 26     57% 36   29.89 29.93      
Mar 24 18:52 W 3 10 Clear CLR 42 26     53% 40   29.86 29.91      
Mar 24 17:52 W 6 10 Clear CLR 45 23     42% 42   29.85 29.9      
Mar 24 16:52 W 6 10 Clear CLR 45 24     44% 42   29.85 29.89      
Mar 24 15:52 WSW 7 10 Clear CLR 46 22     38% 42   29.87 29.91      
Mar 24 14:52 W 8 10 Clear CLR 46 24     42% 42   29.88 29.93      
Mar 24 13:52 7 10 Clear CLR 44 24     45% 40   29.91 29.95      
Mar 24 12:52 7 10 Clear CLR 42 23     46% 38   29.93 29.97      
Mar 24 11:52 7 10 Clear CLR 39 20     46% 34   29.94 29.98      
Mar 24 10:52 WSW 9 10 Clear CLR 38 21     50% 31   29.95 29.99      
Mar 24 09:52 SW 7 10 Clear CLR 34 19     54% 28   29.97 30.01      
Mar 24 08:52 Calm 10 Clear CLR 25 14     63%     29.98 30.03      
Mar 24 07:52 Calm 10 Clear CLR 13 7     77%     29.98 30.04      
Notice The following observation data may not be complete
Mar 24 06:52 Calm 10 Clear CLR          %     29.96 30.03      
Notice The following observation data may not be complete
Mar 24 05:52 Calm 10 Clear CLR   5      %     29.96 30.02      
Mar 24 04:52 SW 6 10 Clear CLR 17 9     70% 9   29.96 30.01      
Mar 24 03:52 Calm 10 Clear CLR 10 6     84%     29.94 30      
Mar 24 02:52 Calm 10 Clear CLR 14 8     77%     29.95 30      
Mar 24 01:52 SW 3 10 Clear CLR 20 11     68% 15   29.95 30      
Mar 24 00:52 SSW 5 10 Clear CLR 21 12     68% 15   29.94 29.99      
Mar 23 23:52 SW 8 10 Clear CLR 21 12     68% 11   29.92 29.98      
Mar 23 22:52 3 10 Clear CLR 20 12     71% 15   29.92 29.97      
Mar 23 21:52 SSW 5 10 Clear CLR 21 14     74% 15   29.92 29.97      
Mar 23 20:52 SSW 6 10 Clear CLR 20 13     74% 12   29.91 29.96      
Mar 23 19:52 W 5 10 Clear CLR 25 13     60% 19   29.88 29.93      
Mar 23 18:52 3 10 Clear CLR 27 16     63% 23   29.85 29.9      
Mar 23 17:52 WNW 15 10 Mostly Clear FEW030 29 18     63% 18   29.79 29.83      
Mar 23 17:49 WNW 11 10 Partly Cloudy SCT030 28 19     69% 19   29.79        
Mar 23 16:52 7 10 Cloudy OVC024 31 21     66% 24   29.75 29.78      
Mar 23 15:52 W 10 10 Cloudy OVC023 30 21     69% 21   29.71 29.75      
Mar 23 14:52 W 9 10 Cloudy OVC020 29 21     72% 20   29.68 29.72      
Mar 23 13:52 W 11 10 Cloudy OVC017 27 20     75% 17   29.67 29.7     0
Mar 23 12:52 W 13 10 Cloudy OVC019 27 19     72% 16   29.64 29.68      
Mar 23 11:52 W 13 10 Clear   27 19     72% 16   29.61 29.65      
May 15 12:30 NE 5 3 Light Rain and Fog/Mist FEW008 BKN015 OVC055 61 59     93%     29.77   0    
May 15 04:52 Calm 10 Clear CLR 44 41     89%     29.8 29.8      
May 14 18:52 WSW 7 10 Clear CLR 75 42     31%   74 29.81 29.81      
May 14 05:52 Calm 10 Clear CLR 33 31     92%     29.97 29.98      
May 12 08:52 3 10 Clear   47 28     48% 46   30.2 30.22      
May 12 04:52 Calm 10 Clear CLR 28 25     88%     30.18 30.21      
May 12 01:52 Calm 10 Clear CLR 29 25     85%     30.18 30.2      
Notice The following observation data may not be complete
Jun 12 04:52 Calm 8 Clear CLR   55      %     29.97 29.96      
Jun 11 14:52 WSW 14 10 Clear CLR 87 58     37%   86 29.86 29.85      
Jun 11 13:52   10 Clear CLR 84 59     43%   84 29.86 29.85      
Jun 11 02:52 Calm 10 Partly Cloudy SCT100 53 50     89%     29.93 29.93      
Notice The following observation data may not be complete
Jun 10 03:16   8 Clear CLR          %         0    
Jun 09 07:52 SSE 5 10 Cloudy OVC070 54 50     86%     29.69 29.68      
Jun 08 22:52 Calm 10 Clear CLR 58 52     81%     29.85 29.84      
Jun 08 10:52 NNW 3 10 Clear CLR 75 50     41%   74 30.02 30.01      
Jun 08 03:52 Calm 10 Clear CLR 42 39     89%     30.03 30.03      
Jun 08 02:52 Calm 10 Clear CLR 43 40     89%     30.03 30.03      
Jun 07 20:52 Calm 10 Clear CLR 58 51     78%     29.98 29.99      
Jun 07 12:52 NW 7 10 Clear CLR 71 49     45%   70 29.96 29.96      
Jun 07 09:52 Calm 10 Partly Cloudy SCT009 57 50     77%     30.02 30.03      
Jun 06 12:52 E 8 10 Light Rain OVC075 50 42     74% 47   29.89 29.9 0    
Jun 05 20:52 Calm 10 Cloudy BKN040 BKN055 OVC070 55 46     72%     29.89 29.89